QPF
0.03 0.01 0.01 0.01 0.02 0.01 0.01 0.00 0.00 0.00 0.00 0.00 0.00 0.00 0.00 0.00 0.00 0.00 0.00 0.00 0.00 0.01 0.01 0.03 0.03 0.04 0.03 0.03 0.03 0.03 0.03 0.02 0.02 0.02 0.02 0.01 0.01 0.01 0.02 0.02 0.02 0.02 0.03
0.04 0.02 0.01 0.01 0.01 0.02 0.01 0.01 0.00 0.00 0.00 0.00 0.00 0.00 0.00 0.00 0.00 0.00 0.00 0.00 0.00 0.00 0.01 0.01 0.02 0.02 0.03 0.04 0.03 0.03 0.03 0.02 0.02 0.02 0.02 0.02 0.02 0.01 0.01 0.01 0.01 0.01 0.02
0.05 0.02 0.01 0.01 0.01 0.01 0.02 0.01 0.01 0.00 0.00 0.00 0.00 0.00 0.00 0.00 0.00 0.00 0.00 0.00 0.00 0.00 0.00 0.00 0.01 0.01 0.01 0.02 0.03 0.03 0.02 0.02 0.02 0.02 0.02 0.03 0.02 0.02 0.02 0.01 0.01 0.01 0.01
0.09 0.04 0.01 0.01 0.01 0.01 0.02 0.02 0.01 0.00 0.00 0.00 0.00 0.00 0.00 0.00 0.00 0.00 0.00 0.00 0.00 0.00 0.00 0.00 0.00 0.00 0.00 0.01 0.02 0.02 0.02 0.02 0.01 0.01 0.01 0.01 0.01 0.01 0.01 0.01 0.01 0.01 0.01
0.12 0.09 0.03 0.01 0.01 0.01 0.01 0.02 0.02 0.01 0.00 0.00 0.00 0.00 0.00 0.00 0.00 0.00 0.00 0.00 0.00 0.00 0.00 0.00 0.00 0.00 0.00 0.00 0.01 0.02 0.01 0.01 0.01 0.01 0.01 0.01 0.01 0.01 0.01 0.01 0.01 0.01 0.01
0.11 0.16 0.09 0.02 0.01 0.01 0.01 0.02 0.03 0.02 0.01 0.00 0.00 0.00 0.00 0.00 0.00 0.00 0.00 0.00 0.00 0.00 0.00 0.00 0.00 0.00 0.00 0.00 0.00 0.00 0.01 0.01 0.01 0.01 0.01 0.01 0.01 0.01 0.01 0.01 0.01 0.01 0.01
0.09 0.13 0.19 0.11 0.04 0.02 0.01 0.01 0.02 0.03 0.02 0.01 0.00 0.00 0.00 0.00 0.00 0.00 0.00 0.00 0.00 0.00 0.00 0.00 0.00 0.00 0.00 0.00 0.00 0.00 0.00 0.00 0.01 0.01 0.01 0.01 0.01 0.01 0.01 0.01 0.01 0.01 0.01
0.10 0.07 0.12 0.16 0.13 0.06 0.02 0.02 0.02 0.03 0.03 0.01 0.00 0.00 0.00 0.00 0.00 0.00 0.00 0.00 0.00 0.00 0.00 0.00 0.00 0.00 0.00 0.00 0.00 0.00 0.00 0.00 0.00 0.00 0.01 0.01 0.01 0.01 0.02 0.02 0.01 0.01 0.01
0.12 0.09 0.10 0.13 0.13 0.11 0.05 0.02 0.03 0.04 0.03 0.03 0.01 0.00 0.00 0.00 0.00 0.00 0.00 0.00 0.00 0.00 0.00 0.00 0.00 0.00 0.00 0.00 0.00 0.00 0.00 0.00 0.00 0.00 0.00 0.00 0.00 0.01 0.01 0.01 0.01 0.01 0.01
0.09 0.09 0.09 0.10 0.12 0.11 0.08 0.05 0.03 0.04 0.04 0.04 0.03 0.01 0.00 0.00 0.00 0.00 0.00 0.00 0.00 0.00 0.00 0.00 0.00 0.00 0.00 0.00 0.00 0.00 0.00 0.00 0.00 0.00 0.00 0.00 0.00 0.00 0.00 0.01 0.01 0.01 0.01
0.09 0.07 0.06 0.07 0.07 0.08 0.09 0.08 0.06 0.05 0.05 0.05 0.04 0.03 0.01 0.01 0.00 0.00 0.00 0.00 0.01 0.00 0.00 0.00 0.00 0.00 0.00 0.00 0.00 0.00 0.00 0.00 0.00 0.00 0.00 0.00 0.00 0.00 0.01 0.01 0.01 0.01 0.01
0.09 0.07 0.04 0.04 0.05 0.05 0.06 0.07 0.07 0.05 0.04 0.05 0.04 0.04 0.02 0.01 0.01 0.00 0.00 0.00 0.00 0.00 0.00 0.00 0.00 0.00 0.00 0.00 0.00 0.00 0.00 0.00 0.00 0.00 0.00 0.00 0.00 0.00 0.01 0.01 0.01 0.01 0.01
0.07 0.06 0.05 0.03 0.02 0.03 0.03 0.03 0.03 0.03 0.03 0.03 0.04 0.04 0.03 0.02 0.01 0.00 0.00 0.00 0.00 0.00 0.00 0.00 0.00 0.00 0.00 0.00 0.00 0.00 0.00 0.00 0.00 0.00 0.00 0.00 0.00 0.00 0.00 0.00 0.00 0.00 0.01
0.07 0.05 0.04 0.04 0.03 0.01 0.01 0.01 0.01 0.02 0.02 0.02 0.03 0.04 0.04 0.03 0.01 0.00 0.00 0.00 0.00 0.00 0.00 0.00 0.00 0.00 0.00 0.00 0.00 0.00 0.00 0.00 0.00 0.00 0.00 0.00 0.00 0.00 0.00 0.00 0.00 0.00 0.00
0.05 0.05 0.04 0.04 0.03 0.02 0.01 0.01 0.01 0.01 0.01 0.01 0.01 0.02 0.03 0.03 0.02 0.01 0.00 0.00 0.00 0.00 0.00 0.00 0.00 0.00 0.00 0.00 0.00 0.00 0.00 0.00 0.00 0.00 0.00 0.00 0.00 0.00 0.00 0.00 0.00 0.00 0.00
0.03 0.03 0.03 0.02 0.02 0.01 0.01 0.01 0.01 0.01 0.01 0.01 0.01 0.01 0.02 0.03 0.03 0.01 0.00 0.00 0.00 0.00 0.00 0.00 0.00 0.00 0.00 0.00 0.00 0.00 0.00 0.00 0.00 0.00 0.00 0.00 0.00 0.00 0.00 0.00 0.00 0.00 0.00
0.02 0.02 0.02 0.01 0.01 0.01 0.00 0.01 0.01 0.01 0.01 0.01 0.01 0.01 0.01 0.02 0.03 0.02 0.01 0.01 0.00 0.00 0.00 0.00 0.00 0.00 0.00 0.00 0.00 0.00 0.00 0.00 0.00 0.00 0.00 0.00 0.00 0.00 0.00 0.00 0.00 0.00 0.00
0.01 0.01 0.01 0.01 0.01 0.01 0.01 0.01 0.01 0.01 0.01 0.01 0.01 0.01 0.01 0.01 0.01 0.02 0.02 0.01 0.01 0.00 0.00 0.00 0.00 0.00 0.00 0.00 0.00 0.00 0.00 0.00 0.00 0.00 0.00 0.00 0.00 0.00 0.00 0.00 0.00 0.00 0.00
0.00 0.00 0.00 0.00 0.00 0.00 0.01 0.00 0.01 0.01 0.01 0.01 0.01 0.01 0.01 0.01 0.01 0.01 0.02 0.02 0.01 0.01 0.00 0.00 0.00 0.00 0.00 0.00 0.00 0.00 0.00 0.00 0.00 0.00 0.00 0.00 0.00 0.00 0.00 0.00 0.01 0.01 0.00
0.00 0.00 0.00 0.00 0.00 0.00 0.01 0.01 0.01 0.01 0.01 0.01 0.01 0.01 0.01 0.01 0.01 0.01 0.01 0.02 0.02 0.01 0.01 0.01 0.00 0.00 0.00 0.00 0.00 0.00 0.00 0.00 0.00 0.00 0.00 0.00 0.00 0.00 0.00 0.00 0.00 0.00 0.00
0.01 0.01 0.00 0.00 0.00 0.00 0.01 0.01 0.01 0.01 0.01 0.01 0.01 0.01 0.01 0.00 0.00 0.00 0.00 0.01 0.02 0.03 0.02 0.01 0.01 0.00 0.00 0.00 0.00 0.00 0.00 0.00 0.00 0.00 0.00 0.00 0.00 0.00 0.00 0.00 0.00 0.00 0.00
0.01 0.01 0.01 0.01 0.01 0.00 0.01 0.01 0.01 0.01 0.00 0.00 0.00 0.00 0.00 0.00 0.00 0.00 0.00 0.00 0.00 0.02 0.03 0.03 0.02 0.01 0.00 0.00 0.00 0.00 0.01 0.01 0.01 0.00 0.00 0.00 0.00 0.00 0.00 0.00 0.00 0.00 0.00
0.01 0.01 0.01 0.01 0.01 0.01 0.01 0.00 0.00 0.00 0.00 0.00 0.00 0.00 0.00 0.00 0.00 0.00 0.00 0.00 0.00 0.00 0.01 0.02 0.02 0.01 0.01 0.01 0.01 0.01 0.01 0.01 0.01 0.00 0.00 0.00 0.00 0.00 0.00 0.00 0.00 0.00 0.00
0.01 0.01 0.01 0.01 0.01 0.00 0.00 0.00 0.00 0.00 0.00 0.00 0.00 0.00 0.00 0.00 0.00 0.00 0.00 0.00 0.00 0.00 0.00 0.01 0.01 0.01 0.01 0.01 0.01 0.02 0.02 0.02 0.01 0.01 0.00 0.00 0.00 0.00 0.00 0.00 0.00 0.00 0.00
0.01 0.01 0.01 0.01 0.00 0.00 0.00 0.00 0.00 0.00 0.00 0.00 0.00 0.00 0.00 0.00 0.00 0.00 0.00 0.00 0.00 0.00 0.00 0.01 0.01 0.01 0.01 0.02 0.02 0.02 0.02 0.02 0.02 0.01 0.00 0.00 0.00 0.00 0.00 0.00 0.00 0.00 0.00
0.00 0.01 0.01 0.01 0.00 0.00 0.00 0.00 0.00 0.00 0.00 0.00 0.00 0.00 0.00 0.00 0.00 0.00 0.00 0.00 0.00 0.00 0.00 0.00 0.01 0.01 0.01 0.01 0.01 0.02 0.02 0.03 0.03 0.02 0.00 0.01 0.01 0.01 0.01 0.00 0.00 0.00 0.00
MSLP
1020.47 1020.59 1020.64 1020.64 1020.62 1020.62 1020.63 1020.67 1020.74 1020.83 1020.91 1020.98 1021.03 1021.04 1021.03 1020.97 1020.87 1020.72 1020.52 1020.26 1019.95 1019.61 1019.27 1018.94 1018.67 1018.48 1018.38 1018.38 1018.45 1018.59 1018.76 1018.95 1019.14 1019.30 1019.45 1019.58 1019.69 1019.77 1019.82 1019.84 1019.81 1019.73 1019.63
1020.65 1020.77 1020.82 1020.83 1020.84 1020.86 1020.91 1020.98 1021.08 1021.18 1021.27 1021.35 1021.39 1021.41 1021.38 1021.33 1021.25 1021.12 1020.95 1020.74 1020.49 1020.20 1019.90 1019.61 1019.36 1019.17 1019.05 1019.00 1019.03 1019.12 1019.25 1019.40 1019.56 1019.72 1019.87 1020.01 1020.12 1020.22 1020.28 1020.30 1020.27 1020.21 1020.11
1020.78 1020.90 1020.97 1021.01 1021.05 1021.11 1021.19 1021.29 1021.41 1021.52 1021.61 1021.67 1021.70 1021.70 1021.67 1021.62 1021.54 1021.44 1021.31 1021.15 1020.96 1020.74 1020.50 1020.26 1020.04 1019.86 1019.74 1019.66 1019.65 1019.68 1019.76 1019.86 1019.98 1020.10 1020.23 1020.35 1020.46 1020.54 1020.61 1020.64 1020.63 1020.58 1020.50
1020.87 1021.01 1021.11 1021.19 1021.27 1021.37 1021.48 1021.60 1021.72 1021.82 1021.90 1021.94 1021.95 1021.92 1021.88 1021.82 1021.76 1021.68 1021.59 1021.48 1021.35 1021.19 1021.02 1020.83 1020.66 1020.50 1020.38 1020.29 1020.24 1020.23 1020.25 1020.29 1020.34 1020.41 1020.48 1020.56 1020.64 1020.72 1020.77 1020.80 1020.81 1020.79 1020.74
1020.95 1021.11 1021.25 1021.37 1021.50 1021.62 1021.76 1021.89 1022.00 1022.08 1022.13 1022.14 1022.12 1022.08 1022.02 1021.96 1021.90 1021.84 1021.78 1021.72 1021.63 1021.53 1021.42 1021.29 1021.16 1021.03 1020.92 1020.83 1020.76 1020.70 1020.67 1020.64 1020.63 1020.62 1020.63 1020.65 1020.68 1020.72 1020.75 1020.78 1020.80 1020.80 1020.78
1021.02 1021.20 1021.38 1021.54 1021.70 1021.86 1022.01 1022.14 1022.24 1022.30 1022.32 1022.30 1022.25 1022.19 1022.12 1022.06 1022.01 1021.97 1021.94 1021.90 1021.85 1021.78 1021.70 1021.61 1021.51 1021.41 1021.32 1021.23 1021.15 1021.07 1020.98 1020.90 1020.82 1020.74 1020.67 1020.62 1020.59 1020.58 1020.58 1020.60 1020.62 1020.63 1020.64
1021.05 1021.26 1021.47 1021.67 1021.87 1022.05 1022.21 1022.33 1022.42 1022.46 1022.45 1022.42 1022.36 1022.29 1022.23 1022.18 1022.15 1022.12 1022.10 1022.07 1022.03 1021.98 1021.90 1021.82 1021.73 1021.65 1021.56 1021.48 1021.39 1021.29 1021.18 1021.05 1020.91 1020.76 1020.62 1020.50 1020.41 1020.35 1020.31 1020.31 1020.32 1020.34 1020.37
1021.03 1021.27 1021.50 1021.74 1021.96 1022.16 1022.33 1022.46 1022.53 1022.56 1022.56 1022.52 1022.47 1022.43 1022.39 1022.37 1022.35 1022.34 1022.32 1022.28 1022.23 1022.15 1022.05 1021.95 1021.85 1021.75 1021.67 1021.58 1021.49 1021.39 1021.26 1021.11 1020.93 1020.73 1020.54 1020.35 1020.20 1020.09 1020.02 1019.99 1019.99 1020.01 1020.04
1020.94 1021.19 1021.45 1021.71 1021.96 1022.18 1022.36 1022.49 1022.58 1022.62 1022.63 1022.62 1022.61 1022.61 1022.62 1022.63 1022.65 1022.65 1022.62 1022.56 1022.46 1022.33 1022.18 1022.03 1021.89 1021.77 1021.66 1021.57 1021.48 1021.38 1021.25 1021.08 1020.88 1020.66 1020.43 1020.21 1020.01 1019.86 1019.75 1019.69 1019.67 1019.69 1019.71
1020.77 1021.04 1021.31 1021.59 1021.85 1022.10 1022.30 1022.45 1022.56 1022.63 1022.68 1022.73 1022.77 1022.83 1022.89 1022.96 1023.01 1023.02 1022.98 1022.88 1022.73 1022.54 1022.32 1022.10 1021.90 1021.73 1021.59 1021.48 1021.38 1021.28 1021.16 1021.00 1020.81 1020.58 1020.33 1020.08 1019.86 1019.68 1019.54 1019.46 1019.42 1019.41 1019.42
1020.54 1020.81 1021.10 1021.39 1021.67 1021.93 1022.15 1022.34 1022.49 1022.60 1022.70 1022.81 1022.92 1023.05 1023.18 1023.29 1023.37 1023.40 1023.35 1023.22 1023.02 1022.75 1022.46 1022.17 1021.90 1021.67 1021.49 1021.35 1021.25 1021.14 1021.03 1020.88 1020.69 1020.47 1020.22 1019.97 1019.74 1019.54 1019.38 1019.28 1019.22 1019.18 1019.17
1020.27 1020.54 1020.83 1021.13 1021.43 1021.71 1021.96 1022.17 1022.36 1022.52 1022.68 1022.84 1023.02 1023.21 1023.40 1023.56 1023.68 1023.72 1023.66 1023.51 1023.27 1022.95 1022.60 1022.24 1021.90 1021.62 1021.40 1021.23 1021.10 1020.99 1020.87 1020.73 1020.55 1020.34 1020.10 1019.85 1019.62 1019.41 1019.24 1019.11 1019.03 1018.97 1018.93
1019.99 1020.27 1020.56 1020.86 1021.17 1021.46 1021.73 1021.97 1022.18 1022.39 1022.59 1022.80 1023.03 1023.27 1023.50 1023.70 1023.85 1023.90 1023.86 1023.70 1023.44 1023.10 1022.71 1022.31 1021.93 1021.60 1021.33 1021.12 1020.96 1020.83 1020.69 1020.54 1020.36 1020.15 1019.92 1019.68 1019.44 1019.23 1019.05 1018.91 1018.80 1018.72 1018.65
1019.76 1020.03 1020.32 1020.62 1020.92 1021.22 1021.49 1021.75 1021.98 1022.21 1022.43 1022.67 1022.93 1023.19 1023.45 1023.67 1023.84 1023.92 1023.89 1023.75 1023.50 1023.16 1022.77 1022.36 1021.97 1021.61 1021.31 1021.06 1020.85 1020.67 1020.51 1020.33 1020.13 1019.90 1019.66 1019.42 1019.18 1018.97 1018.78 1018.62 1018.50 1018.39 1018.29
1019.59 1019.86 1020.14 1020.43 1020.72 1021.01 1021.28 1021.53 1021.77 1021.99 1022.22 1022.46 1022.71 1022.98 1023.23 1023.46 1023.64 1023.74 1023.75 1023.64 1023.44 1023.14 1022.79 1022.40 1022.01 1021.64 1021.31 1021.02 1020.77 1020.53 1020.31 1020.08 1019.84 1019.58 1019.32 1019.06 1018.82 1018.59 1018.39 1018.22 1018.08 1017.94 1017.82
1019.50 1019.76 1020.03 1020.30 1020.58 1020.85 1021.11 1021.34 1021.56 1021.78 1021.98 1022.20 1022.42 1022.66 1022.90 1023.12 1023.30 1023.42 1023.46 1023.40 1023.26 1023.03 1022.74 1022.40 1022.04 1021.68 1021.33 1021.00 1020.69 1020.39 1020.09 1019.80 1019.50 1019.20 1018.90 1018.62 1018.35 1018.11 1017.90 1017.71 1017.54 1017.39 1017.25
1019.49 1019.74 1020.00 1020.26 1020.51 1020.76 1020.99 1021.21 1021.40 1021.58 1021.75 1021.92 1022.11 1022.30 1022.50 1022.69 1022.86 1022.99 1023.06 1023.06 1022.99 1022.84 1022.62 1022.34 1022.02 1021.68 1021.32 1020.96 1020.59 1020.22 1019.86 1019.49 1019.12 1018.76 1018.42 1018.10 1017.81 1017.55 1017.31 1017.10 1016.92 1016.74 1016.58
1019.54 1019.79 1020.03 1020.27 1020.50 1020.73 1020.94 1021.13 1021.29 1021.44 1021.56 1021.69 1021.82 1021.95 1022.10 1022.25 1022.40 1022.52 1022.62 1022.66 1022.65 1022.56 1022.41 1022.20 1021.93 1021.61 1021.25 1020.86 1020.45 1020.02 1019.58 1019.15 1018.72 1018.31 1017.92 1017.56 1017.23 1016.94 1016.68 1016.44 1016.22 1016.02 1015.82
1019.62 1019.87 1020.10 1020.32 1020.54 1020.75 1020.94 1021.10 1021.24 1021.35 1021.43 1021.51 1021.58 1021.66 1021.74 1021.85 1021.95 1022.06 1022.15 1022.22 1022.24 1022.21 1022.11 1021.95 1021.71 1021.42 1021.06 1020.66 1020.21 1019.74 1019.26 1018.77 1018.30 1017.84 1017.42 1017.02 1016.66 1016.33 1016.03 1015.74 1015.48 1015.23 1015.00
1019.72 1019.96 1020.18 1020.39 1020.60 1020.79 1020.97 1021.11 1021.22 1021.30 1021.35 1021.38 1021.40 1021.42 1021.45 1021.49 1021.55 1021.62 1021.68 1021.74 1021.77 1021.75 1021.68 1021.55 1021.34 1021.06 1020.72 1020.31 1019.86 1019.38 1018.87 1018.36 1017.87 1017.39 1016.93 1016.50 1016.10 1015.73 1015.38 1015.03 1014.71 1014.41 1014.12
1019.79 1020.03 1020.24 1020.45 1020.65 1020.82 1020.98 1021.11 1021.20 1021.26 1021.28 1021.28 1021.25 1021.22 1021.19 1021.17 1021.17 1021.18 1021.20 1021.22 1021.22 1021.20 1021.13 1021.00 1020.80 1020.54 1020.21 1019.82 1019.38 1018.91 1018.41 1017.91 1017.42 1016.93 1016.46 1016.01 1015.57 1015.14 1014.72 1014.31 1013.91 1013.54 1013.19
1019.82 1020.05 1020.27 1020.47 1020.65 1020.81 1020.95 1021.06 1021.14 1021.18 1021.18 1021.15 1021.09 1021.01 1020.93 1020.84 1020.78 1020.72 1020.68 1020.64 1020.59 1020.53 1020.43 1020.30 1020.10 1019.85 1019.54 1019.18 1018.78 1018.34 1017.89 1017.41 1016.94 1016.46 1015.98 1015.51 1015.03 1014.54 1014.05 1013.57 1013.08 1012.62 1012.20
1019.80 1020.03 1020.24 1020.42 1020.59 1020.73 1020.85 1020.94 1020.99 1021.02 1021.00 1020.94 1020.85 1020.74 1020.61 1020.48 1020.34 1020.22 1020.10 1020.00 1019.89 1019.77 1019.64 1019.48 1019.28 1019.04 1018.76 1018.44 1018.09 1017.70 1017.30 1016.87 1016.42 1015.96 1015.48 1014.98 1014.46 1013.91 1013.35 1012.78 1012.21 1011.68 1011.19
1019.72 1019.95 1020.15 1020.31 1020.45 1020.56 1020.64 1020.70 1020.73 1020.73 1020.69 1020.62 1020.51 1020.37 1020.21 1020.03 1019.84 1019.66 1019.48 1019.30 1019.13 1018.97 1018.79 1018.61 1018.40 1018.18 1017.93 1017.65 1017.35 1017.02 1016.66 1016.28 1015.87 1015.42 1014.93 1014.40 1013.83 1013.22 1012.59 1011.94 1011.31 1010.71 1010.17
1019.61 1019.83 1020.01 1020.14 1020.24 1020.30 1020.34 1020.36 1020.35 1020.32 1020.26 1020.17 1020.05 1019.89 1019.71 1019.50 1019.28 1019.05 1018.82 1018.59 1018.37 1018.15 1017.95 1017.74 1017.54 1017.32 1017.10 1016.86 1016.61 1016.33 1016.01 1015.66 1015.26 1014.81 1014.31 1013.74 1013.12 1012.46 1011.77 1011.07 1010.39 1009.75 1009.20
1019.46 1019.67 1019.82 1019.91 1019.96 1019.97 1019.96 1019.93 1019.88 1019.81 1019.73 1019.62 1019.48 1019.32 1019.13 1018.91 1018.66 1018.41 1018.15 1017.88 1017.63 1017.39 1017.16 1016.95 1016.74 1016.54 1016.34 1016.13 1015.90 1015.65 1015.36 1015.01 1014.61 1014.14 1013.60 1013.00 1012.33 1011.62 1010.89 1010.16 1009.47 1008.84 1008.31
Thickness
5659 5659 5658 5658 5657 5657 5656 5655 5654 5652 5651 5650 5648 5647 5646 5645 5644 5643 5643 5643 5643 5644 5644 5644 5644 5643 5642 5641 5640 5639 5638 5637 5637 5636 5635 5635 5635 5634 5634 5635 5635 5635 5636
5653 5652 5652 5651 5651 5650 5650 5649 5647 5646 5644 5643 5641 5640 5639 5638 5637 5636 5635 5635 5635 5635 5635 5635 5635 5635 5634 5634 5633 5632 5631 5630 5629 5628 5628 5627 5627 5627 5627 5627 5627 5627 5628
5647 5647 5646 5645 5644 5644 5643 5642 5641 5639 5638 5636 5634 5633 5631 5630 5629 5628 5628 5627 5627 5626 5626 5626 5626 5625 5625 5625 5624 5623 5622 5622 5621 5620 5619 5619 5619 5619 5618 5618 5618 5618 5619
5641 5640 5639 5638 5638 5637 5637 5635 5634 5632 5630 5628 5626 5625 5624 5623 5622 5621 5620 5619 5618 5617 5616 5616 5615 5615 5615 5615 5615 5614 5614 5613 5612 5611 5611 5610 5610 5610 5610 5609 5609 5609 5610
5634 5633 5633 5632 5631 5630 5629 5628 5626 5624 5622 5620 5618 5617 5616 5615 5614 5613 5612 5611 5609 5608 5607 5606 5605 5605 5605 5605 5605 5605 5604 5604 5603 5602 5602 5601 5601 5601 5601 5601 5600 5600 5601
5626 5626 5625 5624 5624 5623 5621 5620 5618 5616 5614 5612 5611 5609 5607 5606 5605 5604 5603 5602 5600 5599 5598 5597 5596 5595 5594 5594 5594 5594 5594 5594 5593 5593 5593 5592 5592 5592 5591 5591 5591 5591 5591
5619 5618 5617 5616 5616 5615 5613 5612 5610 5607 5605 5603 5602 5599 5598 5597 5596 5595 5594 5592 5591 5590 5588 5587 5586 5585 5584 5583 5583 5583 5583 5583 5583 5583 5583 5582 5582 5582 5581 5581 5581 5581 5581
5610 5610 5610 5608 5607 5606 5605 5603 5602 5599 5596 5595 5593 5590 5587 5587 5587 5587 5585 5583 5581 5580 5579 5578 5576 5575 5574 5573 5572 5572 5572 5572 5572 5572 5572 5572 5571 5571 5571 5571 5571 5571 5571
5602 5602 5601 5600 5598 5597 5596 5595 5593 5592 5588 5585 5584 5583 5580 5579 5575 5576 5575 5573 5571 5570 5568 5567 5566 5565 5564 5563 5562 5561 5560 5560 5561 5561 5561 5561 5561 5561 5560 5560 5560 5560 5560
5594 5594 5593 5592 5591 5589 5587 5586 5585 5583 5580 5577 5574 5572 5571 5569 5566 5564 5564 5563 5562 5560 5558 5557 5556 5555 5553 5552 5551 5550 5550 5549 5549 5549 5549 5549 5549 5549 5549 5549 5549 5548 5548
5585 5585 5584 5584 5582 5581 5579 5577 5575 5573 5571 5568 5566 5563 5560 5557 5555 5554 5552 5551 5550 5550 5549 5548 5546 5544 5543 5542 5541 5540 5539 5538 5538 5538 5538 5538 5538 5537 5537 5536 5536 5536 5536
5576 5575 5575 5574 5573 5572 5570 5568 5566 5564 5561 5559 5556 5554 5551 5549 5546 5543 5541 5539 5537 5538 5538 5537 5535 5533 5532 5531 5529 5528 5527 5526 5526 5525 5525 5525 5525 5524 5523 5523 5522 5522 5522
5567 5567 5566 5565 5564 5563 5561 5559 5557 5554 5552 5549 5547 5544 5542 5540 5537 5534 5531 5528 5526 5526 5526 5525 5524 5522 5520 5519 5517 5516 5515 5514 5513 5513 5512 5512 5511 5510 5509 5509 5508 5508 5507
5560 5559 5557 5556 5555 5553 5551 5549 5547 5543 5541 5539 5537 5534 5531 5529 5527 5524 5522 5518 5516 5514 5514 5513 5512 5510 5508 5506 5504 5503 5502 5500 5500 5499 5498 5498 5496 5495 5494 5494 5493 5492 5492
5552 5550 5549 5546 5545 5543 5541 5538 5536 5532 5530 5527 5525 5522 5519 5517 5515 5513 5511 5508 5505 5504 5504 5502 5499 5499 5496 5494 5492 5490 5489 5487 5486 5485 5484 5483 5482 5481 5480 5479 5478 5477 5477
5543 5541 5538 5536 5534 5532 5530 5527 5525 5522 5519 5516 5513 5510 5507 5505 5503 5501 5498 5496 5493 5491 5490 5490 5487 5486 5484 5482 5479 5478 5476 5474 5473 5471 5470 5469 5468 5466 5465 5464 5463 5462 5462
5533 5531 5529 5526 5524 5522 5519 5517 5514 5511 5508 5505 5502 5499 5497 5494 5491 5489 5486 5483 5480 5476 5476 5477 5475 5473 5470 5468 5467 5464 5462 5460 5458 5456 5455 5454 5453 5451 5450 5449 5447 5447 5446
5524 5522 5518 5516 5514 5511 5509 5506 5503 5501 5498 5494 5491 5488 5485 5482 5480 5477 5473 5470 5467 5464 5462 5463 5462 5459 5456 5454 5452 5450 5448 5446 5443 5442 5440 5439 5437 5436 5434 5432 5431 5430 5430
5514 5512 5508 5506 5504 5501 5498 5496 5493 5490 5487 5484 5480 5477 5474 5470 5467 5464 5461 5458 5454 5451 5448 5447 5448 5445 5442 5439 5436 5434 5432 5430 5428 5425 5423 5422 5420 5418 5417 5415 5414 5414 5413
5504 5502 5499 5496 5493 5491 5488 5485 5482 5479 5475 5472 5469 5466 5463 5459 5456 5453 5450 5446 5442 5438 5434 5431 5431 5430 5427 5423 5418 5416 5416 5414 5412 5409 5407 5405 5403 5400 5399 5398 5397 5396 5395
5495 5492 5488 5485 5483 5480 5478 5474 5471 5468 5464 5461 5457 5454 5451 5448 5446 5442 5439 5435 5430 5425 5420 5417 5416 5414 5412 5407 5402 5399 5397 5397 5396 5392 5389 5387 5384 5383 5381 5379 5378 5377 5377
5484 5480 5477 5475 5472 5470 5467 5465 5461 5457 5453 5449 5446 5443 5439 5436 5434 5432 5428 5424 5419 5413 5409 5405 5402 5399 5397 5392 5387 5383 5379 5377 5379 5378 5371 5371 5367 5366 5364 5363 5362 5361 5361
5473 5470 5467 5464 5462 5459 5457 5454 5451 5446 5442 5438 5434 5431 5428 5425 5422 5418 5415 5412 5408 5403 5399 5393 5389 5386 5382 5379 5373 5369 5365 5361 5361 5359 5353 5356 5353 5350 5350 5348 5346 5346 5345
5462 5459 5456 5453 5450 5448 5446 5443 5440 5435 5430 5427 5423 5419 5416 5413 5409 5406 5403 5400 5396 5391 5386 5382 5378 5374 5370 5365 5360 5355 5351 5348 5347 5344 5337 5337 5338 5335 5336 5334 5332 5331 5330
5451 5448 5446 5443 5440 5437 5435 5432 5429 5423 5419 5416 5412 5408 5404 5401 5398 5395 5391 5387 5384 5380 5376 5371 5367 5363 5358 5353 5347 5342 5337 5333 5334 5333 5325 5320 5322 5320 5322 5322 5319 5317 5315
5441 5438 5435 5432 5429 5426 5424 5421 5418 5413 5409 5405 5402 5398 5394 5390 5387 5383 5378 5374 5372 5369 5365 5361 5356 5351 5346 5340 5334 5328 5323 5319 5317 5317 5314 5307 5306 5303 5306 5310 5307 5304 5302